FW1764 Weather Reports


time (UTC)temp
F
wind
direction
speed
knots
gust
knots
rain 1hr
in
rain 24hr
in
rain mn
in
humidity
%
barometer
mb
20260505011513 74 155 0.9 4.3 0.00 0.00 0.00 56 1004.2
20260505010013 75 205 0.0 3.5 0.00 0.00 0.00 55 1004.1
20260505004548 76 198 0.9 5.2 0.00 0.00 0.00 54 1003.9
20260505003054 77 154 0.9 6.1 0.00 0.00 0.00 52 1003.8
20260505001541 78 208 0.0 4.3 0.00 0.00 0.00 50 1003.9
20260505000039 78 157 2.6 7.0 0.00 0.00 0.00 48 1003.8
20260504234535 79 158 3.5 7.0 0.00 0.00 0.00 48 1004.1
20260504233037 80 138 0.9 7.8 0.00 0.00 0.00 47 1004.1
20260504231532 80 172 2.6 11.3 0.00 0.00 0.00 47 1004.2
20260504230032 81 201 0.0 5.2 0.00 0.00 0.00 47 1004.4
20260504224531 82 196 1.7 4.3 0.00 0.00 0.00 46 1004.3
20260504223037 81 217 2.6 11.3 0.00 0.00 0.00 45 1004.3
20260504221529 82 209 1.7 11.3 0.00 0.00 0.00 45 1004.3
20260504220030 82 187 1.7 7.0 0.00 0.00 0.00 44 1004.2
20260504214527 82 184 1.7 9.6 0.00 0.00 0.00 44 1004.2
20260504213027 82 102 2.6 9.6 0.00 0.00 0.00 44 1004.1
20260504211533 81 216 1.7 7.0 0.00 0.00 0.00 47 1004.0
20260504210018 79 205 0.9 6.1 0.00 0.00 0.00 47 1004.2
20260504204519 79 203 0.9 6.1 0.00 0.00 0.00 48 1004.4
20260504203016 78 217 0.9 4.3 0.00 0.00 0.00 50 1004.6
20260504201517 77 196 0.9 7.8 0.00 0.00 0.00 50 1004.4
20260504200042 78 198 0.9 3.5 0.00 0.00 0.00 47 1005.7
20260504194548 79 179 0.9 7.8 0.00 0.00 0.00 45 1005.8
20260504193039 80 96 3.5 8.7 0.00 0.00 0.00 43 1005.5
20260504191539 81 191 2.6 11.3 0.00 0.00 0.00 45 1005.5
20260504190038 80 164 2.6 10.4 0.00 0.00 0.00 46 1005.5
20260504184545 80 194 3.5 12.2 0.00 0.00 0.00 46 1005.9
20260504183029 80 214 2.6 10.4 0.00 0.00 0.00 45 1005.8
20260504181531 80 184 2.6 7.0 0.00 0.00 0.00 48 1006.0
20260504180026 80 178 1.7 6.1 0.00 0.00 0.00 49 1005.9
20260504174522 79 219 2.6 7.0 0.00 0.00 0.00 49 1006.4
20260504173054 78 146 1.7 8.7 0.00 0.00 0.00 52 1006.5
20260504171548 78 220 1.7 7.8 0.00 0.00 0.00 50 1007.0
20260504081536 63 201 0.0 4.3 0.00 0.00 0.00 68 1009.2
20260504044522 64 196 0.0 4.3 0.00 0.00 0.00 63 1010.6
20260504043027 65 191 0.9 3.5 0.00 0.00 0.00 62 1010.8
20260504041530 65 191 0.9 5.2 0.00 0.00 0.00 62 1010.9
20260504040017 65 191 0.9 3.5 0.00 0.00 0.00 61 1011.2
20260504034519 66 143 0.0 4.3 0.00 0.00 0.00 60 1011.6
20260504033016 66 181 0.9 7.0 0.00 0.00 0.00 59 1011.6
20260504031513 66 193 0.9 4.3 0.00 0.00 0.00 58 1011.4
20260504030012 66 204 0.0 4.3 0.00 0.00 0.00 58 1011.4
20260504024512 66 201 0.0 4.3 0.00 0.00 0.00 57 1011.4
20260504023011 66 204 0.0 3.5 0.00 0.00 0.00 56 1011.2
20260504021508 66 187 0.0 3.5 0.00 0.00 0.00 55 1011.2
20260504020012 67 203 0.0 1.7 0.00 0.00 0.00 55 1011.1
20260504014515 67 204 0.0 1.7 0.00 0.00 0.00 53 1011.1
20260504013008 68 198 0.0 3.5 0.00 0.00 0.00 52 1011.0